(182336) = 2001 PL52 = 2004 GQ33

Discovered at Haleakala on 2001-08-15 by NEAT.

Orbit

Orbit type: Main Belt

Note: WebGL enabled browser required.

epoch2024-03-31.0
epoch JD2460400.5
perihelion date2022-04-20.86770
perihelion JD2459690.36770
argument of perihelion (°)336.23925
ascending node (°)17.10634
inclination (°)14.90242
eccentricity0.0935403
perihelion distance (AU)2.3216017
Tisserand w.r.t. Jupiter3.4
ΔV w.r.t. Earth (km/sec)10.6
semimajor axis (AU)2.5611747
mean anomaly (°)170.75928
mean daily motion (°/day)0.24046120
aphelion distance (AU)2.801
period (years)4.1
P-vector [x]0.98927688
P-vector [y]-0.05321690
P-vector [z]-0.13601184
Q-vector [x]0.12493539
Q-vector [y]0.79068051
Q-vector [z]0.59934587
absolute magnitude16.0
phase slope0.15
uncertainty0
referenceMPEC 2024-F28
observations used479
oppositions14
arc length (days)8251
first opposition used2001
last opposition used2024
residual rms (arc-secs)0.79
perturbers coarse indicatorM-v
perturbers precise indicator003Ek
first observation date used2001-08-15.0
last observation date used2024-03-18.0
computer nameMPCLINUX
JD of orbit computation2456523.310352
perihelion JD uncertainty (days)2.2484E-04
argument of perihelion uncertainty (°)5.0079E-05
ascending node uncertainty (°)2.5059E-05
inclination uncertainty (°)1.4622E-05
eccentricity uncertainty 2.0399E-07
perihelion distance uncertainty (AU)5.2377E-07
Minimum Orbit Intersection Distances (in AU)
for orbit epoch: 2460400.5, reference: E2024-GF4
Mercury1.9381
Venus1.59562
Earth1.32512
Mars0.92679
Jupiter2.61067
Saturn6.52431
Uranus15.66
Neptune27.4595

Observations

491 total observations over interval: 2001 08 15.60188 – 2024 03 18.170575
These data are available for download (format description).

Date (UT) J2000 RA J2000 Dec Magn Location Ref
2001 08 15.60188 23 34 16.97 -21 17 23.6 20.5   608 – Haleakala-AMOS MPS 34563
2001 08 15.61236 23 34 16.39 -21 17 25.3 20.5   608 – Haleakala-AMOS MPS 34563
2001 08 15.62313 23 34 15.90 -21 17 26.8 20.0   608 – Haleakala-AMOS MPS 34563
2001 08 19.34726 23 31 11.86 -21 26 09.1 19.0   704 – Lincoln Laboratory ETS, New Mexico MPS 34563
2001 08 19.35989 23 31 11.16 -21 26 11.8 19.9   704 – Lincoln Laboratory ETS, New Mexico MPS 34563
2001 08 19.37259 23 31 10.48 -21 26 12.0 19.9   704 – Lincoln Laboratory ETS, New Mexico MPS 34563
2001 08 19.38530 23 31 09.76 -21 26 13.7 19.1   704 – Lincoln Laboratory ETS, New Mexico MPS 34563
2001 08 26.25048 23 24 38.76 -21 38 50.4 19.7   644 – Palomar Mountain/NEAT MPS 37738
2001 08 26.26811 23 24 37.65 -21 38 51.8 19.9   644 – Palomar Mountain/NEAT MPS 37738
2001 08 26.27860 23 24 36.98 -21 38 52.5 19.5   644 – Palomar Mountain/NEAT MPS 37738
2001 09 11.26246 23 07 05.50 -21 38 50.5 18.9   704 – Lincoln Laboratory ETS, New Mexico MPS 37738
2001 09 11.27687 23 07 04.46 -21 38 48.7 19.9   704 – Lincoln Laboratory ETS, New Mexico MPS 37738
2001 09 11.29082 23 07 03.56 -21 38 47.6 19.5   704 – Lincoln Laboratory ETS, New Mexico MPS 37738
2001 09 17.25402 23 00 33.19 -21 24 56.3 18.2 R 699 – Lowell Observatory-LONEOS MPS 37738
2001 09 17.26962 23 00 32.14 -21 24 55.7   699 – Lowell Observatory-LONEOS MPS 37738
2001 09 17.28525 23 00 31.18 -21 24 50.6   699 – Lowell Observatory-LONEOS MPS 37738
2001 09 17.30090 23 00 30.00 -21 24 48.7   699 – Lowell Observatory-LONEOS MPS 37738
2004 04 12.33937 13 32 14.25 -13 02 11.0 20.0 V 691 – Steward Observatory, Kitt Peak-Spacewatch MPS 105224
2004 04 12.36792 13 32 12.38 -13 02 10.2 19.9 V 691 – Steward Observatory, Kitt Peak-Spacewatch MPS 105224
2004 04 12.39656 13 32 10.51 -13 02 08.8 19.9 V 691 – Steward Observatory, Kitt Peak-Spacewatch MPS 105224
2004 04 17.24695 13 27 01.42 -12 58 25.4 19.5   704 – Lincoln Laboratory ETS, New Mexico MPS 105224
2004 04 17.25760 13 27 00.70 -12 58 24.0 19.1   704 – Lincoln Laboratory ETS, New Mexico MPS 105224
2004 04 17.26813 13 26 59.96 -12 58 24.0 19.7   704 – Lincoln Laboratory ETS, New Mexico MPS 105224
2004 04 17.27904 13 26 59.27 -12 58 23.0 19.6   704 – Lincoln Laboratory ETS, New Mexico MPS 105224
2004 04 19.23388 13 24 55.17 -12 56 34.9 19.8 V 691 – Steward Observatory, Kitt Peak-Spacewatch MPS 106691
2004 04 19.26118 13 24 53.41 -12 56 33.4 19.6 V 691 – Steward Observatory, Kitt Peak-Spacewatch MPS 106691
2004 04 19.28794 13 24 51.66 -12 56 31.8 19.8 V 691 – Steward Observatory, Kitt Peak-Spacewatch MPS 106691
2004 04 20.35437 13 23 44.27 -12 55 29.7   704 – Lincoln Laboratory ETS, New Mexico MPS 406873
2004 04 20.36512 13 23 43.46 -12 55 29.2   704 – Lincoln Laboratory ETS, New Mexico MPS 406873
2004 04 20.37602 13 23 42.79 -12 55 28.4   704 – Lincoln Laboratory ETS, New Mexico MPS 406873
2004 05 10.16113 13 05 23.08 -12 36 43.6 20.5 V 691 – Steward Observatory, Kitt Peak-Spacewatch MPS 106691
2004 05 10.19373 13 05 21.58 -12 36 42.6 20.3 V 691 – Steward Observatory, Kitt Peak-Spacewatch MPS 106691
2004 05 10.22163 13 05 20.29 -12 36 40.9 20.7 V 691 – Steward Observatory, Kitt Peak-Spacewatch MPS 106691
2005 08 08.52618 22 34 24.06 -31 38 48.4 19.3 V E12 – Siding Spring Survey MPS 139239
2005 08 08.53795 22 34 23.34 -31 38 50.1 19.3 V E12 – Siding Spring Survey MPS 139239
2005 08 08.54955 22 34 22.58 -31 38 51.5 18.9 V E12 – Siding Spring Survey MPS 139239
2005 08 08.56164 22 34 21.90 -31 38 54.8 19.5 V E12 – Siding Spring Survey MPS 139239
2005 09 08.59755 22 00 25.59 -31 22 55.8 18.9 V E12 – Siding Spring Survey MPS 140970
2005 09 08.60753 22 00 24.98 -31 22 52.7 19.5 V E12 – Siding Spring Survey MPS 140970
2005 09 08.61718 22 00 24.37 -31 22 49.7 19.8 V E12 – Siding Spring Survey MPS 140970
2005 09 08.62715 22 00 23.79 -31 22 47.2 18.9 V E12 – Siding Spring Survey MPS 140970
2006 12 26.25447 07 02 53.84 +46 03 12.6 19.6 V 703 – Catalina Sky Survey MPS 191835
2006 12 26.26483 07 02 52.94 +46 03 14.8 19.6 V 703 – Catalina Sky Survey MPS 191835
2006 12 26.27512 07 02 52.15 +46 03 17.4 19.4 V 703 – Catalina Sky Survey MPS 191835
2006 12 26.28549 07 02 51.21 +46 03 19.8 19.9 V 703 – Catalina Sky Survey MPS 191835
2008 03 11.34204 13 24 27.68 -06 23 23.0 20.2   704 – Lincoln Laboratory ETS, New Mexico MPS 241973
2008 03 11.35333 13 24 27.09 -06 23 25.1 20.4   704 – Lincoln Laboratory ETS, New Mexico MPS 241973
2008 03 11.36445 13 24 26.67 -06 23 23.6 19.7   704 – Lincoln Laboratory ETS, New Mexico MPS 241973
2008 03 11.37559 13 24 26.14 -06 23 24.6 20.0   704 – Lincoln Laboratory ETS, New Mexico MPS 241973
2008 03 12.40185 13 23 41.83 -06 23 28.4 21.2 V 691 – Steward Observatory, Kitt Peak-Spacewatch MPS 243505
2008 03 12.41957 13 23 41.02 -06 23 29.2 20.2 V 691 – Steward Observatory, Kitt Peak-Spacewatch MPS 243505
2008 03 12.43729 13 23 40.22 -06 23 29.3 20.2 V 691 – Steward Observatory, Kitt Peak-Spacewatch MPS 243505
2008 03 16.37318 13 20 37.89 -06 22 59.4   691 – Steward Observatory, Kitt Peak-Spacewatch MPS 243505
2008 03 16.39091 13 20 37.03 -06 22 59.1   691 – Steward Observatory, Kitt Peak-Spacewatch MPS 243505
2008 03 16.40863 13 20 36.07 -06 22 59.1   691 – Steward Observatory, Kitt Peak-Spacewatch MPS 243505
2008 03 25.25711 13 12 42.83 -06 17 53.2 20.1 V 691 – Steward Observatory, Kitt Peak-Spacewatch MPS 243971
2008 03 25.27467 13 12 41.87 -06 17 53.1 20.1 V 691 – Steward Observatory, Kitt Peak-Spacewatch MPS 243971
2008 03 25.29222 13 12 40.79 -06 17 51.8 20.0 V 691 – Steward Observatory, Kitt Peak-Spacewatch MPS 243971
2008 03 28.29687 13 09 44.42 -06 15 08.7 19.7 V G96 – Mt. Lemmon Survey MPS 243971
2008 03 28.30148 13 09 44.13 -06 15 08.1 19.8 V G96 – Mt. Lemmon Survey MPS 243971
2008 03 28.30618 13 09 43.84 -06 15 07.9 19.9 V G96 – Mt. Lemmon Survey MPS 243971
2008 03 28.31085 13 09 43.56 -06 15 07.8 19.8 V G96 – Mt. Lemmon Survey MPS 243971
2008 04 06.35441 13 00 26.63 -06 05 08.0 18.9   704 – Lincoln Laboratory ETS, New Mexico MPS 245662
2008 04 06.36609 13 00 25.90 -06 05 07.1 19.3   704 – Lincoln Laboratory ETS, New Mexico MPS 245662
2008 04 06.37780 13 00 25.13 -06 05 06.4 19.4   704 – Lincoln Laboratory ETS, New Mexico MPS 245662
2008 04 06.38944 13 00 24.40 -06 05 05.6 19.4   704 – Lincoln Laboratory ETS, New Mexico MPS 245662
2008 04 06.40109 13 00 23.61 -06 05 05.3 19.4   704 – Lincoln Laboratory ETS, New Mexico MPS 245662
2008 04 07.30240 12 59 27.26 -06 04 01.4 19.1   704 – Lincoln Laboratory ETS, New Mexico MPS 245662
2008 04 07.32550 12 59 25.88 -06 04 00.4 19.7   704 – Lincoln Laboratory ETS, New Mexico MPS 245662
2008 04 07.33695 12 59 25.11 -06 03 59.5 20.2   704 – Lincoln Laboratory ETS, New Mexico MPS 245662
2008 04 07.34840 12 59 24.39 -06 03 59.1 19.8   704 – Lincoln Laboratory ETS, New Mexico MPS 245662
2008 05 05.22565 12 34 12.00 -05 45 57.9 20.1 V G96 – Mt. Lemmon Survey MPS 249747
2008 05 05.23233 12 34 11.71 -05 45 57.9 20.0 V G96 – Mt. Lemmon Survey MPS 249747
2008 05 05.23898 12 34 11.42 -05 45 58.1 20.0 V G96 – Mt. Lemmon Survey MPS 249747
2008 05 05.24565 12 34 11.17 -05 45 58.4 19.9 V G96 – Mt. Lemmon Survey MPS 249747
2009 08 11.57235 21 16 10.12 -39 58 36.5 18.5 V E12 – Siding Spring Survey MPS 294313
2009 08 11.57587 21 16 09.87 -39 58 36.6 18.2 V E12 – Siding Spring Survey MPS 294313
2009 08 11.57940 21 16 09.69 -39 58 36.3 18.4 V E12 – Siding Spring Survey MPS 294313
2009 08 11.58294 21 16 09.51 -39 58 37.1 18.3 V E12 – Siding Spring Survey MPS 294313
2009 08 11.61355 21 16 07.10 -39 58 35.3 18.5 V E12 – Siding Spring Survey MPS 294313
2009 08 11.61711 21 16 06.92 -39 58 36.0 19.4 V E12 – Siding Spring Survey MPS 294313
2009 08 11.62829 21 16 06.09 -39 58 34.5 18.6 V E12 – Siding Spring Survey MPS 294313
2009 08 11.63183 21 16 05.70 -39 58 36.3 18.8 V E12 – Siding Spring Survey MPS 294313
2009 08 11.63537 21 16 05.44 -39 58 35.9 18.8 V E12 – Siding Spring Survey MPS 294313
2012 02 18.13663 13 03 27.33 +00 02 14.6 20.1 V I93 – St Pardon de Conques MPS 413943
2012 02 18.18779 13 03 26.22 +00 02 14.0 19.7 V I93 – St Pardon de Conques MPS 413943
2012 02 21.44280 13 02 09.52 +00 02 14.3 20.4 V 691 – Steward Observatory, Kitt Peak-Spacewatch MPS 413943
